Flag for U.S.A. Weather past 2 weeks in Irving, Texas, U.S.A.

Now
50 °F

Partly cloudy.


Feels Like: 44 °F
Forecast: 43 / 57 °F
Wind: 17 mph from Northeast

Location: Dallas / Fort Worth International Airport

Current Time: Jan 29, 2015 at 10:56:46 PM

Latest Report: Jan 29, 2015 at 9:53 PM


Visibility: 10 mi

Pressure: 30.45 "Hg

Humidity: 48%

Dew point: 31 °F

Location of IrvingLocation

Historic Weather in Irving — Graph

°F

Irving temperature yesterday

Maximum temperature yesterday: 79 °F (at 1:53 PM)
Minimum temperature yesterday: 48 °F (at 6:53 AM)
Average temperature yesterday: 64 °F

Past Weeks' High & Low Weather Summary

 TemperatureHumidityPressure
High79 °F (Jan 28, 1:53 PM)97% (Jan 22, 8:53 AM)30.44 "Hg (Jan 22, 8:53 AM)
Low32 °F (Jan 16, 7:53 AM)18% (Jan 18, 2:53 PM)29.90 "Hg (Jan 20, 4:53 AM)
Average51 °F56%30.13 "Hg
* Reported Jan 14 8:53 PM — Jan 29 8:53 PM, Irving, Weather by CustomWeather, © 2014

Note: Actual official high and low records may vary slightly from our data, if they occured in-between our weather recording intervals... More about our weather records

Advertising

Irving weather history for previous 24 hours

 ConditionsComfort  
Time TempWeatherWind HumidityBarometerVisibility
8:53 PM
Jan 29
52 °FMostly cloudy.14 mph45%30.44 "Hg10 mi
7:53 PM54 °FOvercast.20 mph41%30.40 "Hg10 mi
6:53 PM56 °FPassing clouds.17 mph37%30.38 "Hg10 mi
5:53 PM58 °FPartly sunny.17 mph38%30.34 "Hg10 mi
4:53 PM62 °FBroken clouds.17 mph35%30.31 "Hg10 mi
3:53 PM63 °FBroken clouds.17 mph35%30.28 "Hg10 mi
2:53 PM65 °FBroken clouds.21 mph34%30.26 "Hg10 mi
1:53 PM66 °FBroken clouds.21 mph33%30.25 "Hg10 mi
12:53 PM66 °FPartly sunny.21 mph33%30.27 "Hg10 mi
11:53 AM66 °FPartly sunny.17 mph34%30.27 "Hg10 mi
10:53 AM65 °FScattered clouds.17 mph34%30.27 "Hg10 mi
9:53 AM63 °FScattered clouds.17 mph37%30.25 "Hg10 mi
8:53 AM60 °FScattered clouds.16 mph41%30.21 "Hg10 mi
7:53 AM54 °FScattered clouds.12 mph57%30.17 "Hg10 mi
6:53 AM54 °FPassing clouds.15 mph59%30.13 "Hg10 mi
5:53 AM57 °FPassing clouds.10 mph53%30.09 "Hg10 mi
4:53 AM55 °FPassing clouds.6 mph57%30.07 "Hg10 mi
3:53 AM60 °FPassing clouds.6 mph46%30.05 "Hg10 mi
2:53 AM58 °FPassing clouds.14 mph51%30.03 "Hg10 mi
1:53 AM62 °FPartly cloudy.7 mph43%30.05 "Hg10 mi
12:53 AM61 °FPassing clouds.12 mph46%30.01 "Hg10 mi
11:53 PM
Jan 28
62 °FPassing clouds.10 mph44%30.02 "Hg10 mi
10:53 PM64 °FPassing clouds.14 mph43%30.00 "Hg10 mi
Weather by CustomWeather, © 2014

See weather overviewHow to use our weather pages